User: anonymous   Login
Location: Vancouver
(49.2500°N, 123.1330°W)
Time: 11:21:11
(UTC-07:00)
Language:

AO-27 - Orbit

View from above orbital plane
View from above orbital plane
View from above satellite
View from above satellite

Ground track
Ground track

The orbit data is extracted from the following two-line orbital elements,

1 22825U 93061C   18141.49286368  .00000004  00000-0  19446-4 0  9991
2 22825  98.8607 117.1276 0009465  67.4928 292.7254 14.30030385285759
Epoch (UTC): 21 May 2018 11:49:43
Eccentricity: 0.0009465
inclination: 98.8607°
perigee height: 785 km
apogee height: 798 km
right ascension of ascending node: 117.1276°
argument of perigee: 67.4928°
revolutions per day: 14.30030385
mean anomaly at epoch: 292.7254°
orbit number at epoch: 28575

The dashed part of the orbit path shows where the satellite is in the earth's shadow,  

DLR